Location: Hall+in+Tirol
(47.2830°N, 11.5170°E)
Time: 21:02:35
(UTC+02:00)

Gurwin Techsat 1B - Visible Passes

Search period start: 24 April 2017 00:00
Search period end: 04 May 2017 00:00
Orbit: 812 x 814 km, 98.6° (Epoch: 23 April)

Date Brightness Start Highest point End Pass type
(mag) Time Alt. Az. Time Alt. Az. Time Alt. Az.
24 Apr 9.6 02:41:56 10° NNE 02:46:54 38° E 02:48:04 34° SE visible
24 Apr 9.5 04:22:02 10° N 04:26:47 34° WNW 04:29:17 22° WSW visible
25 Apr 10.2 02:19:33 10° NE 02:23:55 25° E 02:25:05 23° ESE visible
25 Apr 8.9 03:58:59 10° N 04:04:08 51° WNW 04:06:18 32° SW visible
26 Apr 10.7 01:57:34 10° NE 02:00:50 16° E 02:02:05 15° ESE visible
26 Apr 8.5 03:36:03 10° NNE 03:41:23 77° WNW 03:43:18 41° SSW visible
26 Apr 10.6 05:17:53 10° NNW 05:20:29 14° NW 05:23:05 10° W visible
27 Apr 8.7 03:13:14 10° NNE 03:18:35 70° ESE 03:20:18 43° S visible
27 Apr 10.2 04:54:13 10° NNW 04:58:00 20° WNW 05:01:30 11° WSW visible
28 Apr 9.3 02:50:35 10° NNE 02:55:42 45° E 02:57:17 35° SE visible
28 Apr 9.7 04:30:55 10° N 04:35:27 29° WNW 04:38:30 17° WSW visible
29 Apr 10.0 02:28:06 10° NE 02:32:44 29° E 02:34:18 25° SE visible
29 Apr 9.2 04:07:48 10° N 04:12:49 43° WNW 04:15:30 25° WSW visible
30 Apr 10.5 02:05:55 10° NE 02:09:41 19° E 02:11:18 17° ESE visible
30 Apr 8.7 03:44:50 10° N 03:50:07 66° WNW 03:52:31 32° SW visible
30 Apr 10.7 05:27:12 10° NNW 05:29:04 12° NW 05:30:57 10° WNW visible
01 May 11.0 01:44:32 10° ENE 01:46:34 12° E 01:48:18 11° ESE visible
01 May 8.6 03:21:58 10° NNE 03:27:20 83° ESE 03:29:30 37° S visible
01 May 10.4 05:03:14 10° NNW 05:06:38 17° WNW 05:10:01 10° W visible
02 May 9.1 02:59:15 10° NNE 03:04:29 54° E 03:06:30 34° SSE visible
02 May 9.9 04:39:49 10° N 04:44:06 25° WNW 04:47:43 13° WSW visible
03 May 9.8 02:36:41 10° NNE 02:41:33 35° E 02:43:30 27° SE visible
03 May 9.4 04:16:39 10° N 04:21:30 37° WNW 04:24:43 19° WSW visible
